Orbital Elements at Epoch 2459000.5 (2020-May-31.0) TDB
Reference: JPL 18 (heliocentric ecliptic J2000)
Element | Value | Uncertainty (1-sigma) | Units |
e | .102925359220949 | 6.9582e-08 | |
a | 2.674213427951542 | 2.867e-08 | au |
q | 2.398969050246144 | 1.9184e-07 | au |
i | 14.77038987621179 | 5.2893e-06 | deg |
node | 111.1754141797935 | 2.6028e-05 | deg |
peri | 103.3697743048078 | 3.9361e-05 | deg |
M | 330.2047734668107 | 2.8577e-05 | deg |
tp | 2459132.701601299015 (2020-Oct-10.20160130) | 0.00012745 | TDB |
period | 1597.322188996667 4.37 | 2.5687e-05 7.033e-08 | d yr |
n | .2253771984637166 | 3.6244e-09 | deg/d |
Q | 2.949457805656939 | 3.1621e-08 | au |
|
| | Orbit Determination Parameters
Additional Information
|